Regional Weather Roundup
Issued by NWS State College, PA

Home | Current Version | Previous Version | Graphics & Text | Print | Product List | Glossary Off
Versions: 1 2 3 4 5 6 7 8 9 10 11 12 13 14 15 16 17 18 19 20 21 22 23 24 25 26 27 28 29 30 31 32 33 34 35 36 37 38 39 40 41 42 43 44 45 46 47 48 49 50

000
ASUS41 KCTP 182003
RWRCTP

REGIONAL WEATHER ROUNDUP
NATIONAL WEATHER SERVICE STATE COLLEGE PA
300 PM EST WED JAN 18 2017

Note: "fair" indicates few or no clouds below 12,000 feet with no
significant weather and/or obstructions to visibility.

* = STATION THAT DOES NOT REPORT PRECIPITATION /E.G. RAIN...SNOW...ETC/
    THUNDER OR FOG.

PAZ002>004-007>009-013>016-020>023-029>032-182100-
WESTERN PENNSYLVANIA

CITY           SKY/WX    TMP DP  RH WIND       PRES   REMARKS
ERIE           CLOUDY    36  34  92 W12G24    30.05S FOG
MEADVILLE      CLOUDY    35  33  92 W10       30.04R
FRANKLIN*        N/A     36  32  87 W9        30.05S
NEW CASTLE     CLOUDY    38  35  89 W7        30.08S
BEAVER COUNTY  CLOUDY    37  34  87 W8        30.07S
BUTLER*        CLOUDY    37  34  87 W9        30.09S
PITTSBURGH INT CLOUDY    39  35  86 W9        30.08R
PITTSBURGH     CLOUDY    39  32  76 W8G17     30.08R
INDIANA*       CLOUDY    39  37  93 NW9G18    30.08R FOG
LATROBE        CLOUDY    39  36  87 W9        30.09R
WASHINGTON CO* CLOUDY    39  34  81 W13       30.10R
$$

PAZ004>006-010>012-017>019-024>028-033>037-041-042-045-046-049>053-182100-
CENTRAL PENNSYLVANIA

CITY           SKY/WX    TMP DP  RH WIND       PRES   REMARKS
BRADFORD       CLOUDY    34  34 100 W8        29.97R FOG
DUBOIS         CLOUDY    36  33  89 W13G22    30.00S FOG
CLEARFIELD     CLOUDY    39  36  89 W6        30.01R
JOHNSTOWN      CLOUDY    36  34  92 W15G25    30.00R
ALTOONA        CLOUDY    42  35  76 W13G23    30.01R
STATE COLLEGE  CLOUDY    41  36  81 NW9G20    29.99R
WILLIAMSPORT   CLOUDY    44  40  85 W3        29.96R
SELINSGROVE    CLOUDY    45  40  82 NW8       29.98R
FT INDIANTOWN  CLOUDY    47  43  84 N5        29.95R
CAPITAL CITY   CLOUDY    51  37  58 NW10      29.96R
HARRISBURG     CLOUDY    50  39  66 NW12      29.95R
YORK           CLOUDY    50  39  66 NW15      29.95R
$$

PAZ038>040-043-044-047-048-054-055-060>062-067>071-182100-
EASTERN PENNSYLVANIA

CITY           SKY/WX    TMP DP  RH WIND       PRES   REMARKS
SCRANTON       CLOUDY    41  39  93 NW7       29.94R
MOUNT POCONO   CLOUDY    37  34  89 NW9       29.89S
ALLENTOWN      CLOUDY    44  38  79 E6        29.95R
QUAKERTOWN*    CLOUDY    43  39  87 N3        29.94S
READING        CLOUDY    48  39  71 NW8       29.95R
LANCASTER      CLOUDY    50  41  71 NW10      29.95R
COATESVILLE    CLOUDY    48  39  71 N13G24    29.95R
POTTSTOWN      CLOUDY    48  39  71 N8        29.95R
BLUE BELL      CLOUDY    43  39  87 CALM      29.94R
DOYLESTOWN     CLOUDY    44  39  82 N3        29.94R
WILLOW GROVE   NOT AVBL
NORTH PHILA    CLOUDY    46  40  79 N8        29.96R
PHILADELPHIA   CLOUDY    48  41  76 N9        29.95R
$$




USA.gov is the U.S. government's official web portal to all federal, state and local government web resources and services.